ONEWEB-0006 (44061 NORAD) Tracking and Keplerian Element Data

This shows tracking and keplerian element data for the satellite.

Feedback or suggestion? Click here.




ElementValue
Catalog44061
NameONEWEB-0006
Epoch Orbit8010
Epoch Day298.25001157
Epoch Year2020
RAAN308.6481
Inclination87.9132
Eccentricity0.0001854
Argument of Perigee92.2762
Mean Anonmoly217.4954
Mean Motion13.21823403
Decay Rate-0.00023357
L11 44061U 19010E 20298.25001157 -.00023357 00000-0 -56735-1 0 9997
L22 44061 87.9132 308.6481 0001854 92.2762 217.4954 13.21823403 80101

Live tracking and technical data element details for ONEWEB-0006 (NORAD 44061). ONEWEB-0006 can be tracked NOW for your location showing map with azimuth and elevation plus other details from your city location.

Track the satellite on the map from your city or location and see movement details for azimuth, elevation, latitude, longitude, range, height, and movement on the map or in text.







IsCatalogInMostPopularTable: catalog: 44061, numindb: 356
Update: records affected: 1



GetName: 44061 ONEWEB-0006

Hit Count: updated at: Sun, 25 Oct 2020 00:20:14 GMT